M I D A S
Marine Information and Data Acquisition System
Tripno 248 of the Zeeleeuw from 2002-04-23 06:45:35 to 2002-04-23 11:52:25
Back to CruiseResearch ActivitiesStationsMapUnderway DataData graphs

EquipmentUnitsComments
TimeDGPSUTC
LatitudeDGPSDM.mWGS84
LongitudeDGPSDM.mWGS84
SpeedMeteo Stationm/sRelative wind speed
DirectionMeteo StationdegRelative wind direction
TemperatureMeteo Stationdeg CelciusAir temperature
PressureMeteo StationPaAtmospheric pressure
HumidityMeteo Station%Relative humidity
Missing or incorrect values are displayed as -999
Metereological data collected by the RV Zeeleeuw from 2002-04-23 06:45:35 to 2002-04-23 11:52:25
                                                                                    Next 1000 lines
Time Latitude Longitude Speed Direction Temperature Pressure Humidity
2002-04-23 06:45:41 51°13.688 2°55.906 3.9 76 11.5 103080 86
2002-04-23 06:45:47 51°13.688 2°55.906 3.2 77 11.5 103080 86
2002-04-23 06:45:52 51°13.689 2°55.906 3.2 85 11.5 103080 86
2002-04-23 06:45:57 51°13.689 2°55.906 3.4 78 11.5 103080 86
2002-04-23 06:46:02 51°13.689 2°55.906 2.7 71 11.5 103080 85
2002-04-23 06:46:07 51°13.689 2°55.906 3 71 11.5 103080 85
2002-04-23 06:46:12 51°13.689 2°55.906 1.8 48 11.5 103080 85
2002-04-23 06:46:17 51°13.689 2°55.906 2.2 33 11.5 103080 85
2002-04-23 06:46:22 51°13.688 2°55.906 2.6 40 11.5 103080 85
2002-04-23 06:46:27 51°13.688 2°55.906 2 133 11.5 103080 85
2002-04-23 06:46:32 51°13.688 2°55.906 2 45 11.5 103080 85
2002-04-23 06:46:37 51°13.688 2°55.906 1.4 51 11.5 103080 85
2002-04-23 06:46:41 51°13.688 2°55.906 1.8 42 11.5 103080 86
2002-04-23 06:46:47 51°13.688 2°55.906 1.7 48 11.5 103080 86
2002-04-23 06:46:52 51°13.688 2°55.906 2.1 133 11.5 103080 86
2002-04-23 06:46:57 51°13.688 2°55.906 1.8 47 11.5 103080 86
2002-04-23 06:47:01 51°13.688 2°55.906 1.4 55 11.6 103080 86
2002-04-23 06:47:07 51°13.688 2°55.906 2.4 50 11.6 103080 86
2002-04-23 06:47:12 51°13.688 2°55.906 2.1 48 11.6 103080 86
2002-04-23 06:47:17 51°13.687 2°55.906 2.3 55 11.6 103080 86
2002-04-23 06:47:22 51°13.687 2°55.905 2.8 51 11.6 103080 86
2002-04-23 06:47:27 51°13.687 2°55.905 2.6 133 11.6 103080 86
2002-04-23 06:47:31 51°13.687 2°55.905 2 24 11.6 103080 86
2002-04-23 06:47:37 51°13.687 2°55.905 2.1 37 11.6 103080 86
2002-04-23 06:47:42 51°13.687 2°55.905 2.2 28 11.6 103080 86
2002-04-23 06:47:47 51°13.687 2°55.905 2 32 11.6 103080 86
2002-04-23 06:47:52 51°13.687 2°55.905 2.2 40 11.6 103080 86
2002-04-23 06:47:57 51°13.687 2°55.905 2.2 53 11.6 103080 86
2002-04-23 06:48:02 51°13.686 2°55.905 2.2 50 11.6 103080 86
2002-04-23 06:48:07 51°13.686 2°55.905 2.7 50 11.6 103080 86
2002-04-23 06:48:12 51°13.686 2°55.905 2.2 43 11.6 103080 86
2002-04-23 06:48:17 51°13.686 2°55.905 2 57 11.6 103080 86
2002-04-23 06:48:22 51°13.686 2°55.905 1.6 5 11.6 103080 86
2002-04-23 06:48:27 51°13.686 2°55.905 1.9 31 11.6 103080 86
2002-04-23 06:48:32 51°13.686 2°55.905 2.4 15 11.6 103080 86
2002-04-23 06:48:37 51°13.686 2°55.904 2.7 8 11.6 103080 86
2002-04-23 06:48:41 51°13.686 2°55.904 3.2 29 11.7 103080 86
2002-04-23 06:48:47 51°13.686 2°55.903 3.9 27 11.7 103080 86
2002-04-23 06:48:52 51°13.686 2°55.901 3.8 13 11.7 103080 86
2002-04-23 06:48:57 51°13.687 2°55.898 4.6 28 11.7 103080 86
2002-04-23 06:49:01 51°13.687 2°55.896 4.5 25 11.7 103080 86
2002-04-23 06:49:07 51°13.688 2°55.891 4.8 20 11.7 103080 86
2002-04-23 06:49:13 51°13.689 2°55.886 4.3 37 11.7 103080 85
2002-04-23 06:49:18 51°13.689 2°55.88 3.8 43 11.7 103080 85
2002-04-23 06:49:23 51°13.69 2°55.874 3.7 39 11.6 103080 85
2002-04-23 06:49:28 51°13.69 2°55.868 4.1 43 11.6 103080 85
2002-04-23 06:49:33 51°13.691 2°55.862 4.5 24 11.6 103080 85
2002-04-23 06:49:37 51°13.691 2°55.857 5.5 18 11.6 103080 85
2002-04-23 06:49:43 51°13.691 2°55.848 4.9 25 11.6 103080 85
2002-04-23 06:49:47 51°13.691 2°55.843 5 25 11.6 103080 85
2002-04-23 06:49:53 51°13.691 2°55.834 4.8 29 11.6 103080 85
2002-04-23 06:49:58 51°13.691 2°55.827 4.4 30 11.6 103080 85
2002-04-23 06:50:03 51°13.691 2°55.82 3.7 35 11.6 103090 85
2002-04-23 06:50:08 51°13.69 2°55.813 3.6 17 11.6 103090 85
2002-04-23 06:50:12 51°13.69 2°55.807 3.6 20 11.6 103080 85
2002-04-23 06:50:18 51°13.69 2°55.799 4 26 11.6 103080 85
2002-04-23 06:50:23 51°13.689 2°55.792 4.4 27 11.6 103090 85
2002-04-23 06:50:28 51°13.689 2°55.785 5.2 22 11.6 103090 85
2002-04-23 06:50:32 51°13.688 2°55.78 5 26 11.6 103080 85
2002-04-23 06:50:37 51°13.688 2°55.774 4.6 32 11.6 103080 85
2002-04-23 06:50:42 51°13.687 2°55.768 3.9 16 11.6 103090 85
2002-04-23 06:50:47 51°13.686 2°55.761 4 30 11.6 103090 85
2002-04-23 06:50:52 51°13.686 2°55.755 5.2 18 11.5 103090 85
2002-04-23 06:50:57 51°13.685 2°55.75 4.1 15 11.5 103090 85
2002-04-23 06:51:02 51°13.684 2°55.744 4.4 16 11.5 103090 85
2002-04-23 06:51:07 51°13.684 2°55.739 3.9 18 11.5 103090 85
2002-04-23 06:51:12 51°13.683 2°55.734 3.9 3 11.5 103090 85
2002-04-23 06:51:17 51°13.683 2°55.731 1.9 323 11.5 103090 85
2002-04-23 06:51:21 51°13.683 2°55.73 2 1 11.5 103090 85
2002-04-23 06:51:27 51°13.683 2°55.73 2.1 338 11.5 103090 85
2002-04-23 06:51:32 51°13.685 2°55.733 0.6 304 11.5 103090 85
2002-04-23 06:51:37 51°13.687 2°55.737 4 300 11.5 103090 85
2002-04-23 06:51:42 51°13.69 2°55.742 4.5 295 11.5 103090 85
2002-04-23 06:51:47 51°13.694 2°55.745 3.5 300 11.5 103090 85
2002-04-23 06:51:52 51°13.697 2°55.748 4.2 293 11.5 103090 85
2002-04-23 06:51:57 51°13.7 2°55.75 4.4 282 11.5 103090 85
2002-04-23 06:52:02 51°13.703 2°55.751 3.3 299 11.5 103090 85
2002-04-23 06:52:07 51°13.704 2°55.752 3 311 11.5 103090 85
2002-04-23 06:52:12 51°13.705 2°55.753 3.4 303 11.5 103090 85
2002-04-23 06:52:17 51°13.705 2°55.753 3.1 304 11.5 103090 85
2002-04-23 06:52:22 51°13.704 2°55.753 2.9 304 11.5 103090 85
2002-04-23 06:52:27 51°13.703 2°55.753 3.6 296 11.5 103090 85
2002-04-23 06:52:32 51°13.701 2°55.752 2.3 317 11.5 103090 85
2002-04-23 06:52:38 51°13.698 2°55.752 2 340 11.5 103090 85
2002-04-23 06:52:43 51°13.695 2°55.751 2.3 312 11.5 103090 85
2002-04-23 06:52:48 51°13.692 2°55.75 2.3 323 11.5 103090 85
2002-04-23 06:52:53 51°13.69 2°55.75 1.6 316 11.5 103090 85
2002-04-23 06:52:58 51°13.687 2°55.749 2 321 11.5 103090 85
2002-04-23 06:53:03 51°13.684 2°55.748 2.7 317 11.5 103090 85
2002-04-23 06:53:07 51°13.682 2°55.748 2.1 320 11.5 103090 85
2002-04-23 06:53:12 51°13.68 2°55.747 3.8 306 11.5 103090 85
2002-04-23 06:53:17 51°13.678 2°55.746 3.8 296 11.5 103090 85
2002-04-23 06:53:22 51°13.677 2°55.746 3 268 11.5 103090 85
2002-04-23 06:53:27 51°13.678 2°55.745 4.2 263 11.5 103090 85
2002-04-23 06:53:32 51°13.68 2°55.744 3.4 257 11.5 103090 85
2002-04-23 06:53:37 51°13.684 2°55.742 4.2 265 11.5 103090 85
2002-04-23 06:53:43 51°13.689 2°55.739 4.1 254 11.5 103090 85
2002-04-23 06:53:47 51°13.692 2°55.737 4.6 255 11.5 103090 85
2002-04-23 06:53:52 51°13.698 2°55.733 5.1 239 11.5 103090 85
2002-04-23 06:53:57 51°13.703 2°55.729 4.5 240 11.5 103090 85
2002-04-23 06:54:02 51°13.71 2°55.725 5.6 246 11.5 103090 85
2002-04-23 06:54:07 51°13.716 2°55.72 6.2 244 11.5 103090 85
2002-04-23 06:54:12 51°13.724 2°55.715 6.2 242 11.5 103080 85
2002-04-23 06:54:17 51°13.732 2°55.709 6.1 240 11.5 103080 85
2002-04-23 06:54:22 51°13.74 2°55.703 5.9 241 11.5 103080 85
2002-04-23 06:54:27 51°13.749 2°55.697 5.6 240 11.5 103080 85
2002-04-23 06:54:31 51°13.756 2°55.692 6.3 241 11.5 103080 85
2002-04-23 06:54:37 51°13.767 2°55.684 6.6 243 11.5 103080 85
2002-04-23 06:54:41 51°13.775 2°55.679 7.4 232 11.5 103080 85
2002-04-23 06:54:47 51°13.786 2°55.671 6.2 237 11.5 103080 85
2002-04-23 06:54:51 51°13.794 2°55.665 7.6 238 11.5 103080 85
2002-04-23 06:54:57 51°13.806 2°55.657 7.5 245 11.5 103080 85
2002-04-23 06:55:02 51°13.816 2°55.65 8 242 11.5 103080 85
2002-04-23 06:55:07 51°13.827 2°55.643 8 247 11.5 103080 85
2002-04-23 06:55:12 51°13.837 2°55.635 8.2 244 11.5 103070 85
2002-04-23 06:55:17 51°13.847 2°55.628 9 254 11.5 103070 85
2002-04-23 06:55:22 51°13.858 2°55.62 8.4 253 11.5 103070 85
2002-04-23 06:55:27 51°13.868 2°55.613 8.1 251 11.5 103070 85
2002-04-23 06:55:32 51°13.878 2°55.605 7.2 261 11.5 103070 85
2002-04-23 06:55:37 51°13.889 2°55.597 5.9 254 11.5 103070 85
2002-04-23 06:55:42 51°13.899 2°55.589 5.7 245 11.5 103070 85
2002-04-23 06:55:47 51°13.91 2°55.581 7.7 246 11.5 103070 85
2002-04-23 06:55:52 51°13.921 2°55.573 7.6 247 11.5 103070 85
2002-04-23 06:55:57 51°13.932 2°55.565 6.2 248 11.5 103070 85
2002-04-23 06:56:02 51°13.942 2°55.557 6.1 251 11.5 103070 85
2002-04-23 06:56:07 51°13.953 2°55.549 6.8 234 11.5 103070 85
2002-04-23 06:56:12 51°13.964 2°55.542 7.7 242 11.4 103070 85
2002-04-23 06:56:17 51°13.974 2°55.534 7.4 250 11.4 103070 85
2002-04-23 06:56:22 51°13.985 2°55.526 7.8 250 11.5 103070 85
2002-04-23 06:56:27 51°13.995 2°55.519 7.5 254 11.5 103070 85
2002-04-23 06:56:32 51°14.005 2°55.512 7.7 247 11.4 103080 85
2002-04-23 06:56:37 51°14.014 2°55.505 6.4 253 11.4 103080 85
2002-04-23 06:56:42 51°14.023 2°55.498 7.2 249 11.5 103070 85
2002-04-23 06:56:47 51°14.031 2°55.491 7.6 252 11.5 103070 85
2002-04-23 06:56:52 51°14.04 2°55.485 6.7 253 11.5 103070 85
2002-04-23 06:56:57 51°14.048 2°55.478 7.4 254 11.5 103070 85
2002-04-23 06:57:02 51°14.056 2°55.472 7.6 261 11.4 103070 85
2002-04-23 06:57:07 51°14.064 2°55.466 7.3 257 11.4 103070 85
2002-04-23 06:57:12 51°14.071 2°55.46 7.7 261 11.5 103070 85
2002-04-23 06:57:17 51°14.079 2°55.454 6.1 253 11.5 103070 85
2002-04-23 06:57:21 51°14.084 2°55.449 6.5 257 11.4 103080 85
2002-04-23 06:57:27 51°14.093 2°55.443 7.3 258 11.4 103080 85
2002-04-23 06:57:32 51°14.1 2°55.437 7 253 11.4 103070 85
2002-04-23 06:57:37 51°14.107 2°55.431 7.4 257 11.4 103070 85
2002-04-23 06:57:42 51°14.114 2°55.426 7.5 257 11.4 103080 85
2002-04-23 06:57:47 51°14.121 2°55.42 7.5 256 11.4 103080 85
2002-04-23 06:57:52 51°14.128 2°55.414 7.4 254 11.4 103080 85
2002-04-23 06:57:57 51°14.135 2°55.408 7.4 254 11.4 103080 85
2002-04-23 06:58:02 51°14.143 2°55.401 7.7 255 11.4 103070 85
2002-04-23 06:58:07 51°14.151 2°55.395 7.7 254 11.4 103070 85
2002-04-23 06:58:12 51°14.16 2°55.388 8.4 253 11.4 103080 85
2002-04-23 06:58:17 51°14.168 2°55.38 8.1 253 11.4 103080 85
2002-04-23 06:58:22 51°14.176 2°55.372 7.7 253 11.4 103080 85
2002-04-23 06:58:27 51°14.185 2°55.363 8.5 248 11.4 103080 85
2002-04-23 06:58:32 51°14.194 2°55.354 7.7 246 11.4 103080 85
2002-04-23 06:58:37 51°14.203 2°55.344 9.3 247 11.4 103080 85
2002-04-23 06:58:42 51°14.211 2°55.333 8.5 246 11.4 103080 85
2002-04-23 06:58:47 51°14.22 2°55.322 8.3 244 11.4 103080 85
2002-04-23 06:58:52 51°14.229 2°55.311 7.8 245 11.4 103080 85
2002-04-23 06:58:57 51°14.238 2°55.299 8.4 248 11.4 103080 85
2002-04-23 06:59:02 51°14.247 2°55.287 8.2 245 11.4 103080 85
2002-04-23 06:59:07 51°14.255 2°55.274 7.6 240 11.4 103080 85
2002-04-23 06:59:12 51°14.263 2°55.26 8.2 239 11.4 103080 85
2002-04-23 06:59:17 51°14.271 2°55.246 7.8 243 11.4 103080 85
2002-04-23 06:59:22 51°14.279 2°55.232 9.5 241 11.4 103080 85
2002-04-23 06:59:27 51°14.287 2°55.217 9.4 242 11.4 103080 85
2002-04-23 06:59:32 51°14.295 2°55.203 8.6 245 11.4 103080 85
2002-04-23 06:59:37 51°14.303 2°55.188 9.3 242 11.4 103080 85
2002-04-23 06:59:42 51°14.312 2°55.172 8.9 240 11.4 103080 85
2002-04-23 06:59:47 51°14.32 2°55.156 9.4 239 11.4 103080 85
2002-04-23 06:59:52 51°14.329 2°55.14 8.9 241 11.4 103080 86
2002-04-23 06:59:57 51°14.337 2°55.124 10.1 243 11.4 103080 86
2002-04-23 07:00:02 51°14.346 2°55.107 9.5 241 11.4 103080 86
2002-04-23 07:00:07 51°14.356 2°55.091 9.5 241 11.4 103080 86
2002-04-23 07:00:12 51°14.366 2°55.076 9.5 244 11.4 103080 86
2002-04-23 07:00:17 51°14.376 2°55.06 9.3 240 11.4 103080 86
2002-04-23 07:00:22 51°14.388 2°55.046 9.2 242 11.4 103080 86
2002-04-23 07:00:27 51°14.4 2°55.032 9 239 11.4 103080 86
2002-04-23 07:00:32 51°14.411 2°55.017 9.3 234 11.4 103080 86
2002-04-23 07:00:37 51°14.42 2°54.999 9.1 233 11.4 103080 86
2002-04-23 07:00:41 51°14.427 2°54.984 9.2 230 11.3 103080 86
2002-04-23 07:00:47 51°14.435 2°54.959 10 226 11.3 103080 86
2002-04-23 07:00:52 51°14.441 2°54.938 9.7 226 11.4 103080 86
2002-04-23 07:00:57 51°14.445 2°54.915 10.2 225 11.4 103080 86
2002-04-23 07:01:02 51°14.449 2°54.893 10 223 11.3 103090 86
2002-04-23 07:01:07 51°14.451 2°54.869 9.1 222 11.3 103090 86
2002-04-23 07:01:12 51°14.452 2°54.845 10.1 225 11.3 103080 86
2002-04-23 07:01:17 51°14.454 2°54.821 8.6 220 11.3 103080 86
2002-04-23 07:01:22 51°14.455 2°54.796 9.5 225 11.3 103080 86
2002-04-23 07:01:27 51°14.456 2°54.772 10 226 11.3 103080 86
2002-04-23 07:01:32 51°14.458 2°54.747 9.1 227 11.3 103090 86
2002-04-23 07:01:37 51°14.461 2°54.722 10.6 225 11.3 103090 86
2002-04-23 07:01:42 51°14.463 2°54.697 9.8 223 11.3 103090 86
2002-04-23 07:01:47 51°14.465 2°54.673 9.4 223 11.3 103090 86
2002-04-23 07:01:52 51°14.465 2°54.648 9.6 217 11.3 103090 86
2002-04-23 07:01:57 51°14.463 2°54.623 9.1 223 11.3 103090 86
2002-04-23 07:02:02 51°14.462 2°54.599 8.8 216 11.3 103080 86
2002-04-23 07:02:07 51°14.458 2°54.575 8.5 221 11.3 103080 86
2002-04-23 07:02:12 51°14.455 2°54.551 8.9 215 11.3 103080 86
2002-04-23 07:02:17 51°14.451 2°54.527 8.5 221 11.3 103080 86
2002-04-23 07:02:21 51°14.446 2°54.509 8.3 216 11.3 103090 86
2002-04-23 07:02:27 51°14.438 2°54.483 9 217 11.3 103090 86
2002-04-23 07:02:32 51°14.43 2°54.462 9 212 11.3 103080 86
2002-04-23 07:02:37 51°14.422 2°54.44 8.3 214 11.3 103080 86
2002-04-23 07:02:42 51°14.414 2°54.42 8.6 213 11.3 103080 86
2002-04-23 07:02:47 51°14.405 2°54.399 8.6 212 11.3 103080 86
2002-04-23 07:02:52 51°14.396 2°54.379 8.3 210 11.3 103080 86
2002-04-23 07:02:57 51°14.388 2°54.358 8.3 213 11.3 103080 86
2002-04-23 07:03:02 51°14.379 2°54.338 8.7 215 11.3 103090 86
2002-04-23 07:03:07 51°14.37 2°54.317 8.1 214 11.3 103090 86
2002-04-23 07:03:12 51°14.362 2°54.296 8.7 208 11.3 103090 86
2002-04-23 07:03:17 51°14.354 2°54.274 8.4 215 11.3 103090 86
2002-04-23 07:03:22 51°14.346 2°54.253 8.6 214 11.3 103090 86
2002-04-23 07:03:27 51°14.337 2°54.232 8.6 217 11.3 103090 86
2002-04-23 07:03:32 51°14.329 2°54.21 8.5 214 11.3 103090 86
2002-04-23 07:03:37 51°14.321 2°54.189 9 213 11.3 103090 86
2002-04-23 07:03:42 51°14.313 2°54.168 8.1 210 11.2 103090 86
2002-04-23 07:03:47 51°14.304 2°54.147 8.2 213 11.2 103090 86
2002-04-23 07:03:52 51°14.296 2°54.126 8.7 213 11.2 103090 86
2002-04-23 07:03:57 51°14.287 2°54.105 8.6 212 11.2 103090 86
2002-04-23 07:04:02 51°14.279 2°54.084 8 214 11.2 103090 86
2002-04-23 07:04:07 51°14.271 2°54.063 9 218 11.2 103090 86
2002-04-23 07:04:12 51°14.262 2°54.042 8.5 215 11.2 103090 86
2002-04-23 07:04:17 51°14.254 2°54.021 8.4 210 11.2 103090 86
2002-04-23 07:04:21 51°14.247 2°54.004 9 214 11.2 103090 86
2002-04-23 07:04:27 51°14.238 2°53.978 8.3 215 11.2 103090 86
2002-04-23 07:04:32 51°14.229 2°53.957 8.1 215 11.2 103090 86
2002-04-23 07:04:37 51°14.221 2°53.935 8.1 217 11.2 103090 86
2002-04-23 07:04:41 51°14.215 2°53.918 8.5 215 11.2 103090 86
2002-04-23 07:04:47 51°14.206 2°53.892 8.8 213 11.2 103090 86
2002-04-23 07:04:52 51°14.198 2°53.87 9.3 216 11.2 103090 86
2002-04-23 07:04:57 51°14.19 2°53.848 9.1 215 11.2 103090 86
2002-04-23 07:05:01 51°14.184 2°53.831 9.8 212 11.2 103090 86
2002-04-23 07:05:07 51°14.175 2°53.804 8.3 209 11.2 103090 86
2002-04-23 07:05:12 51°14.167 2°53.783 9.3 215 11.2 103090 86
2002-04-23 07:05:17 51°14.159 2°53.761 8.3 214 11.2 103090 86
2002-04-23 07:05:22 51°14.151 2°53.74 8.3 215 11.2 103090 86
2002-04-23 07:05:27 51°14.143 2°53.718 8.6 211 11.2 103090 86
2002-04-23 07:05:32 51°14.136 2°53.696 8.5 211 11.2 103090 86
2002-04-23 07:05:37 51°14.128 2°53.674 9.2 210 11.2 103090 86
2002-04-23 07:05:42 51°14.12 2°53.653 8.4 214 11.2 103090 86
2002-04-23 07:05:47 51°14.112 2°53.631 8.4 213 11.2 103090 86
2002-04-23 07:05:52 51°14.104 2°53.61 9.3 213 11.2 103100 86
2002-04-23 07:05:57 51°14.096 2°53.588 8.5 213 11.2 103100 86
2002-04-23 07:06:02 51°14.088 2°53.565 9.5 213 11.2 103090 86
2002-04-23 07:06:07 51°14.08 2°53.543 9.5 213 11.2 103090 86
2002-04-23 07:06:12 51°14.071 2°53.52 8.6 216 11.2 103090 86
2002-04-23 07:06:17 51°14.063 2°53.497 9.4 212 11.2 103090 86
2002-04-23 07:06:22 51°14.054 2°53.474 9.1 218 11.2 103100 86
2002-04-23 07:06:27 51°14.046 2°53.45 9.3 213 11.2 103100 86
2002-04-23 07:06:32 51°14.037 2°53.426 9.9 213 11.2 103090 87
2002-04-23 07:06:37 51°14.028 2°53.402 9.4 214 11.2 103090 87
2002-04-23 07:06:41 51°14.021 2°53.383 8.8 212 11.2 103100 87
2002-04-23 07:06:47 51°14.011 2°53.354 10.3 214 11.2 103100 87
2002-04-23 07:06:52 51°14.002 2°53.329 8.9 216 11.2 103090 87
2002-04-23 07:06:57 51°13.993 2°53.305 9.1 215 11.2 103090 87
2002-04-23 07:07:02 51°13.984 2°53.28 9.9 215 11.2 103090 87
2002-04-23 07:07:07 51°13.975 2°53.256 10 212 11.2 103090 87
2002-04-23 07:07:12 51°13.966 2°53.232 9.6 210 11.2 103090 87
2002-04-23 07:07:17 51°13.957 2°53.208 9.2 216 11.2 103090 87
2002-04-23 07:07:22 51°13.949 2°53.183 9.4 214 11.2 103090 87
2002-04-23 07:07:27 51°13.94 2°53.159 8.9 216 11.2 103090 87
2002-04-23 07:07:32 51°13.93 2°53.134 9.6 211 11.2 103090 87
2002-04-23 07:07:37 51°13.921 2°53.109 9.7 215 11.2 103090 87
2002-04-23 07:07:41 51°13.914 2°53.09 10.1 215 11.2 103100 87
2002-04-23 07:07:47 51°13.903 2°53.061 9.4 212 11.2 103100 87
2002-04-23 07:07:52 51°13.895 2°53.036 9.2 215 11.2 103100 87
2002-04-23 07:07:57 51°13.886 2°53.012 9.8 214 11.2 103100 87
2002-04-23 07:08:02 51°13.877 2°52.987 9.1 214 11.2 103090 87
2002-04-23 07:08:07 51°13.867 2°52.962 8.9 215 11.2 103090 87
2002-04-23 07:08:11 51°13.86 2°52.943 9.4 217 11.2 103100 87
2002-04-23 07:08:17 51°13.85 2°52.913 9.1 214 11.2 103100 87
2002-04-23 07:08:22 51°13.84 2°52.888 9.4 213 11.2 103090 87
2002-04-23 07:08:27 51°13.832 2°52.863 9.3 212 11.2 103090 87
2002-04-23 07:08:32 51°13.822 2°52.839 10.2 210 11.2 103090 87
2002-04-23 07:08:37 51°13.813 2°52.814 10 211 11.2 103090 87
2002-04-23 07:08:42 51°13.804 2°52.789 8.9 211 11.2 103090 87
2002-04-23 07:08:47 51°13.795 2°52.764 9.1 209 11.2 103090 87
2002-04-23 07:08:52 51°13.786 2°52.74 9.4 214 11.2 103090 87
2002-04-23 07:08:57 51°13.776 2°52.715 8.6 217 11.2 103090 87
2002-04-23 07:09:02 51°13.767 2°52.69 9.2 213 11.2 103090 87
2002-04-23 07:09:07 51°13.758 2°52.666 10.4 205 11.2 103090 87
2002-04-23 07:09:12 51°13.749 2°52.641 9.3 206 11.1 103100 87
2002-04-23 07:09:17 51°13.74 2°52.617 9.8 210 11.1 103100 87
2002-04-23 07:09:22 51°13.731 2°52.592 9.5 212 11.2 103090 87
2002-04-23 07:09:27 51°13.722 2°52.567 8.9 214 11.2 103090 87
2002-04-23 07:09:32 51°13.713 2°52.542 9.2 214 11.2 103090 87
2002-04-23 07:09:37 51°13.704 2°52.518 8.7 215 11.2 103090 87
2002-04-23 07:09:42 51°13.695 2°52.493 8.8 211 11.1 103090 87
2002-04-23 07:09:47 51°13.686 2°52.468 9.3 210 11.1 103090 87
2002-04-23 07:09:52 51°13.677 2°52.443 10.3 211 11.1 103090 87
2002-04-23 07:09:57 51°13.668 2°52.418 10.2 213 11.1 103090 87
2002-04-23 07:10:01 51°13.66 2°52.399 9.8 215 11.1 103090 87
2002-04-23 07:10:07 51°13.65 2°52.369 9.7 213 11.1 103090 87
2002-04-23 07:10:12 51°13.641 2°52.344 9.8 218 11.1 103090 87
2002-04-23 07:10:17 51°13.631 2°52.32 9.9 208 11.1 103090 87
2002-04-23 07:10:22 51°13.622 2°52.295 10.2 211 11.1 103090 87
2002-04-23 07:10:27 51°13.613 2°52.27 10.3 212 11.1 103090 87
2002-04-23 07:10:31 51°13.606 2°52.251 9.5 210 11.1 103090 87
2002-04-23 07:10:37 51°13.595 2°52.221 9.7 210 11.1 103090 87
2002-04-23 07:10:41 51°13.587 2°52.201 9.4 211 11.1 103090 87
2002-04-23 07:10:47 51°13.576 2°52.172 10.2 213 11.1 103090 87
2002-04-23 07:10:52 51°13.567 2°52.147 9.8 211 11.1 103090 87
2002-04-23 07:10:57 51°13.558 2°52.122 10.3 210 11.1 103090 87
2002-04-23 07:11:02 51°13.549 2°52.097 9.6 212 11.1 103090 87
2002-04-23 07:11:07 51°13.54 2°52.072 9.2 212 11.1 103090 87
2002-04-23 07:11:12 51°13.531 2°52.047 10.1 214 11.1 103090 87
2002-04-23 07:11:17 51°13.522 2°52.023 10.3 211 11.1 103090 87
2002-04-23 07:11:22 51°13.513 2°51.998 9.7 213 11.1 103090 87
2002-04-23 07:11:27 51°13.504 2°51.974 10.6 211 11.1 103090 87
2002-04-23 07:11:32 51°13.495 2°51.949 10.1 209 11.1 103090 87
2002-04-23 07:11:37 51°13.486 2°51.924 9.2 213 11.1 103090 87
2002-04-23 07:11:41 51°13.478 2°51.904 10.1 210 11.1 103090 87
2002-04-23 07:11:47 51°13.467 2°51.875 10 211 11.1 103090 87
2002-04-23 07:11:52 51°13.458 2°51.85 10.4 212 11.1 103090 87
2002-04-23 07:11:57 51°13.449 2°51.825 9.7 207 11.1 103090 87
2002-04-23 07:12:01 51°13.442 2°51.806 8.8 212 11.1 103090 87
2002-04-23 07:12:07 51°13.431 2°51.776 9.5 206 11.1 103090 87
2002-04-23 07:12:12 51°13.422 2°51.751 9.3 207 11.1 103090 87
2002-04-23 07:12:17 51°13.413 2°51.726 9.6 211 11.1 103090 87
2002-04-23 07:12:22 51°13.404 2°51.702 9.3 209 11.1 103090 87
2002-04-23 07:12:27 51°13.395 2°51.677 9.1 209 11.1 103090 87
2002-04-23 07:12:32 51°13.386 2°51.652 10.3 211 11.1 103090 87
2002-04-23 07:12:37 51°13.377 2°51.627 10 213 11.1 103090 87
2002-04-23 07:12:42 51°13.368 2°51.603 9.7 211 11.1 103090 87
2002-04-23 07:12:47 51°13.359 2°51.578 9.6 210 11.1 103090 87
2002-04-23 07:12:52 51°13.35 2°51.554 9.7 209 11.1 103090 87
2002-04-23 07:12:57 51°13.341 2°51.529 10.4 209 11.1 103090 87
2002-04-23 07:13:02 51°13.332 2°51.504 9.9 209 11.1 103090 87
2002-04-23 07:13:07 51°13.323 2°51.48 9.7 211 11.1 103090 87
2002-04-23 07:13:12 51°13.314 2°51.455 8.9 211 11.1 103090 87
2002-04-23 07:13:17 51°13.305 2°51.431 10.8 208 11.1 103090 87
2002-04-23 07:13:22 51°13.296 2°51.407 8.9 208 11.1 103090 87
2002-04-23 07:13:27 51°13.287 2°51.382 9.1 205 11.1 103090 87
2002-04-23 07:13:32 51°13.278 2°51.357 9.2 209 11 103090 87
2002-04-23 07:13:37 51°13.269 2°51.333 9.9 211 11 103090 87
2002-04-23 07:13:42 51°13.26 2°51.308 10.2 210 11 103090 87
2002-04-23 07:13:47 51°13.251 2°51.284 9.4 209 11 103090 87
2002-04-23 07:13:52 51°13.242 2°51.26 9.4 211 11 103090 87
2002-04-23 07:13:57 51°13.233 2°51.235 9 214 11 103090 87
2002-04-23 07:14:02 51°13.224 2°51.211 9.7 209 11 103090 87
2002-04-23 07:14:07 51°13.215 2°51.186 9.9 211 11 103090 87
2002-04-23 07:14:11 51°13.208 2°51.167 10.3 212 11 103080 87
2002-04-23 07:14:17 51°13.197 2°51.137 9.9 209 11 103080 87
2002-04-23 07:14:21 51°13.19 2°51.117 9.6 210 11 103080 87
2002-04-23 07:14:27 51°13.18 2°51.088 10 210 11 103080 87
2002-04-23 07:14:32 51°13.171 2°51.063 10.7 209 11 103090 87
2002-04-23 07:14:37 51°13.162 2°51.039 10.1 212 11 103090 87
2002-04-23 07:14:42 51°13.153 2°51.014 10.1 210 11 103080 87
2002-04-23 07:14:47 51°13.144 2°50.99 10.2 212 11 103080 87
2002-04-23 07:14:52 51°13.135 2°50.965 10.2 214 11 103090 87
2002-04-23 07:14:57 51°13.127 2°50.941 9.8 212 11 103090 87
2002-04-23 07:15:02 51°13.118 2°50.916 10.3 211 11 103080 87
2002-04-23 07:15:07 51°13.109 2°50.892 8.7 207 11 103080 87
2002-04-23 07:15:12 51°13.1 2°50.867 8.9 211 11 103080 87
2002-04-23 07:15:17 51°13.091 2°50.843 10.1 211 11 103080 87
2002-04-23 07:15:22 51°13.082 2°50.818 10.4 209 11 103080 87
2002-04-23 07:15:27 51°13.073 2°50.794 9.4 210 11 103080 87
2002-04-23 07:15:32 51°13.064 2°50.769 9.6 211 11 103080 87
2002-04-23 07:15:37 51°13.056 2°50.745 9.5 210 11 103080 87
2002-04-23 07:15:42 51°13.047 2°50.72 10.2 209 11 103090 87
2002-04-23 07:15:47 51°13.038 2°50.696 9.5 207 11 103090 87
2002-04-23 07:15:52 51°13.029 2°50.671 9.7 209 11 103080 87
2002-04-23 07:15:57 51°13.02 2°50.646 9.5 208 11 103080 87
2002-04-23 07:16:02 51°13.011 2°50.622 9.7 212 11 103090 88
2002-04-23 07:16:07 51°13.002 2°50.598 10 210 11 103090 88
2002-04-23 07:16:12 51°12.993 2°50.573 10.6 210 11 103080 87
2002-04-23 07:16:17 51°12.984 2°50.548 9 211 11 103080 87
2002-04-23 07:16:22 51°12.975 2°50.524 10.1 211 11 103080 88
2002-04-23 07:16:27 51°12.967 2°50.499 10.3 208 11 103080 88
2002-04-23 07:16:32 51°12.958 2°50.475 10.1 210 11 103080 88
2002-04-23 07:16:37 51°12.949 2°50.45 9.4 213 11 103080 88
2002-04-23 07:16:42 51°12.94 2°50.426 9.9 209 11 103090 87
2002-04-23 07:16:47 51°12.931 2°50.401 10.9 207 11 103090 87
2002-04-23 07:16:52 51°12.922 2°50.377 10 213 11 103080 87
2002-04-23 07:16:57 51°12.913 2°50.352 10.3 209 11 103080 87
2002-04-23 07:17:01 51°12.906 2°50.333 10.1 212 11 103080 88
2002-04-23 07:17:07 51°12.896 2°50.303 10.6 211 11 103080 88
2002-04-23 07:17:12 51°12.887 2°50.279 9.6 209 11 103080 88
2002-04-23 07:17:17 51°12.878 2°50.254 9.9 212 11 103080 88
2002-04-23 07:17:21 51°12.871 2°50.234 9 208 11 103080 88
2002-04-23 07:17:27 51°12.86 2°50.205 9.2 212 11 103080 88
2002-04-23 07:17:32 51°12.851 2°50.18 9.2 210 11 103090 88
2002-04-23 07:17:37 51°12.842 2°50.156 10.4 209 11 103090 88
2002-04-23 07:17:41 51°12.835 2°50.136 10 208 11 103080 88
2002-04-23 07:17:47 51°12.824 2°50.107 9.7 208 11 103080 88
2002-04-23 07:17:52 51°12.815 2°50.083 9.5 208 11 103080 88
2002-04-23 07:17:57 51°12.805 2°50.059 9.8 210 11 103080 88
2002-04-23 07:18:02 51°12.796 2°50.036 10.4 205 11 103080 88
2002-04-23 07:18:07 51°12.785 2°50.013 9.3 203 11 103080 88
2002-04-23 07:18:12 51°12.775 2°49.989 9.4 211 11 103080 88
2002-04-23 07:18:17 51°12.765 2°49.967 9.1 213 11 103080 88
2002-04-23 07:18:22 51°12.755 2°49.944 9 209 11 103090 88
2002-04-23 07:18:27 51°12.744 2°49.921 9.2 207 11 103090 88
2002-04-23 07:18:32 51°12.734 2°49.897 8.9 214 10.9 103080 88
2002-04-23 07:18:37 51°12.724 2°49.875 8.9 210 10.9 103080 88
2002-04-23 07:18:41 51°12.716 2°49.856 8.6 212 10.9 103080 88
2002-04-23 07:18:47 51°12.704 2°49.829 9.2 208 10.9 103080 88
2002-04-23 07:18:52 51°12.694 2°49.805 9.1 212 10.9 103080 88
2002-04-23 07:18:57 51°12.684 2°49.782 9.4 213 10.9 103080 88
2002-04-23 07:19:02 51°12.674 2°49.759 9.1 212 10.9 103080 88
2002-04-23 07:19:07 51°12.664 2°49.736 9.5 211 10.9 103080 88
2002-04-23 07:19:12 51°12.654 2°49.712 9.5 206 11 103080 88
2002-04-23 07:19:17 51°12.644 2°49.688 9.6 209 11 103080 88
2002-04-23 07:19:22 51°12.634 2°49.665 9.8 211 11 103080 88
2002-04-23 07:19:27 51°12.624 2°49.642 9.4 205 11 103080 88
2002-04-23 07:19:32 51°12.615 2°49.618 8.7 209 11 103080 88
2002-04-23 07:19:37 51°12.605 2°49.594 9.2 211 11 103080 88
2002-04-23 07:19:42 51°12.595 2°49.571 9.9 210 11 103080 88
2002-04-23 07:19:47 51°12.586 2°49.547 9.7 210 11 103080 88
2002-04-23 07:19:52 51°12.576 2°49.524 8.6 205 10.9 103080 88
2002-04-23 07:19:57 51°12.566 2°49.5 9.5 208 10.9 103080 88
2002-04-23 07:20:02 51°12.556 2°49.477 9.7 214 11 103080 88
2002-04-23 07:20:07 51°12.546 2°49.454 9.1 209 11 103080 88
2002-04-23 07:20:11 51°12.538 2°49.435 9 212 11 103090 88
2002-04-23 07:20:17 51°12.526 2°49.407 9.2 207 11 103090 88
2002-04-23 07:20:21 51°12.519 2°49.388 10.1 202 10.9 103080 88
2002-04-23 07:20:27 51°12.507 2°49.36 9 209 10.9 103080 88
2002-04-23 07:20:32 51°12.497 2°49.337 8.7 212 11 103080 88
2002-04-23 07:20:37 51°12.487 2°49.313 8.4 211 11 103080 88
2002-04-23 07:20:42 51°12.477 2°49.29 8.7 207 10.9 103080 88
2002-04-23 07:20:47 51°12.467 2°49.267 8.7 209 10.9 103080 88
2002-04-23 07:20:52 51°12.457 2°49.244 8.6 212 11 103080 88
2002-04-23 07:20:57 51°12.447 2°49.221 8.8 213 11 103080 88
2002-04-23 07:21:02 51°12.437 2°49.197 9 213 10.9 103090 88
2002-04-23 07:21:07 51°12.427 2°49.174 8.7 212 10.9 103090 88
2002-04-23 07:21:12 51°12.417 2°49.15 8.6 208 10.9 103080 88
2002-04-23 07:21:17 51°12.408 2°49.127 9.5 209 10.9 103080 88
2002-04-23 07:21:22 51°12.397 2°49.104 9 213 11 103090 88
2002-04-23 07:21:27 51°12.387 2°49.081 9.6 213 11 103090 88
2002-04-23 07:21:32 51°12.378 2°49.057 9.3 211 11 103090 88
2002-04-23 07:21:37 51°12.368 2°49.034 9.1 210 11 103090 88
2002-04-23 07:21:42 51°12.358 2°49.011 9.3 213 11 103080 88
2002-04-23 07:21:47 51°12.348 2°48.988 9.4 209 11 103080 88
2002-04-23 07:21:52 51°12.338 2°48.964 9.3 210 11 103090 88
2002-04-23 07:21:57 51°12.328 2°48.941 9.3 213 11 103090 88
2002-04-23 07:22:02 51°12.319 2°48.917 9.9 209 11 103090 88
2002-04-23 07:22:07 51°12.309 2°48.894 9.3 212 11 103090 88
2002-04-23 07:22:12 51°12.299 2°48.871 8.6 214 11 103080 88
2002-04-23 07:22:17 51°12.289 2°48.848 9.7 213 11 103080 88
2002-04-23 07:22:22 51°12.279 2°48.825 9.6 214 11 103080 88
2002-04-23 07:22:27 51°12.27 2°48.801 8.5 215 11 103080 88
2002-04-23 07:22:32 51°12.26 2°48.778 9.6 209 11 103090 88
2002-04-23 07:22:37 51°12.25 2°48.755 8.7 209 11 103090 88
2002-04-23 07:22:42 51°12.24 2°48.732 8.8 210 11 103090 88
2002-04-23 07:22:47 51°12.23 2°48.709 8.7 214 11 103090 88
2002-04-23 07:22:52 51°12.22 2°48.686 8.6 212 11 103090 88
2002-04-23 07:22:57 51°12.211 2°48.662 8.2 214 11 103090 88
2002-04-23 07:23:02 51°12.201 2°48.639 8.7 213 11 103090 88
2002-04-23 07:23:07 51°12.191 2°48.616 9.2 212 11 103090 88
2002-04-23 07:23:12 51°12.181 2°48.593 8.7 210 11 103090 88
2002-04-23 07:23:17 51°12.172 2°48.569 7.7 218 11 103090 88
2002-04-23 07:23:21 51°12.164 2°48.551 8.3 215 11 103090 88
2002-04-23 07:23:27 51°12.152 2°48.523 8.3 217 11 103090 88
2002-04-23 07:23:32 51°12.142 2°48.5 8.9 214 11 103090 88
2002-04-23 07:23:37 51°12.132 2°48.477 8.8 217 11 103090 88
2002-04-23 07:23:42 51°12.123 2°48.453 8.5 219 11 103090 88
2002-04-23 07:23:47 51°12.112 2°48.431 8.9 215 11 103090 88
2002-04-23 07:23:52 51°12.102 2°48.408 8.3 214 11 103090 88
2002-04-23 07:23:57 51°12.093 2°48.384 8.6 216 11 103090 88
2002-04-23 07:24:02 51°12.083 2°48.361 8.7 212 11 103090 88
2002-04-23 07:24:07 51°12.073 2°48.338 8.9 212 11 103090 88
2002-04-23 07:24:12 51°12.063 2°48.315 8.8 210 11.1 103090 88
2002-04-23 07:24:17 51°12.053 2°48.291 7.9 214 11.1 103090 88
2002-04-23 07:24:22 51°12.043 2°48.268 8.3 217 11 103090 88
2002-04-23 07:24:27 51°12.033 2°48.245 8.4 215 11 103090 88
2002-04-23 07:24:32 51°12.024 2°48.222 8.2 213 11 103090 88
2002-04-23 07:24:37 51°12.014 2°48.199 8.3 215 11 103090 88
2002-04-23 07:24:42 51°12.004 2°48.176 8.7 215 11 103090 88
2002-04-23 07:24:47 51°11.994 2°48.152 9.2 215 11 103090 88
2002-04-23 07:24:52 51°11.984 2°48.129 9 215 11.1 103090 88
2002-04-23 07:24:57 51°11.975 2°48.105 8.1 216 11.1 103090 88
2002-04-23 07:25:02 51°11.966 2°48.081 8.8 220 11.1 103090 88
2002-04-23 07:25:07 51°11.956 2°48.058 8.2 217 11.1 103090 88
2002-04-23 07:25:12 51°11.947 2°48.035 8.7 215 11.1 103090 88
2002-04-23 07:25:17 51°11.938 2°48.011 9.1 215 11.1 103090 88
2002-04-23 07:25:22 51°11.929 2°47.987 8.2 215 11.1 103090 88
2002-04-23 07:25:27 51°11.92 2°47.964 9.5 215 11.1 103090 88
2002-04-23 07:25:32 51°11.91 2°47.94 9 209 11.1 103100 88
2002-04-23 07:25:37 51°11.901 2°47.916 8.2 217 11.1 103100 88
2002-04-23 07:25:42 51°11.892 2°47.892 8.3 215 11.1 103090 88
2002-04-23 07:25:47 51°11.883 2°47.868 8.4 216 11.1 103090 88
2002-04-23 07:25:52 51°11.874 2°47.845 8.8 217 11.1 103090 88
2002-04-23 07:25:57 51°11.864 2°47.821 8 215 11.1 103090 88
2002-04-23 07:26:02 51°11.855 2°47.798 8.3 212 11.1 103090 88
2002-04-23 07:26:07 51°11.846 2°47.774 8.1 218 11.1 103090 88
2002-04-23 07:26:12 51°11.836 2°47.75 8.7 217 11.1 103100 88
2002-04-23 07:26:17 51°11.827 2°47.727 8.6 215 11.1 103100 88
2002-04-23 07:26:22 51°11.818 2°47.703 8.8 214 11.1 103100 88
2002-04-23 07:26:27 51°11.808 2°47.679 9.1 219 11.1 103100 88
2002-04-23 07:26:32 51°11.799 2°47.655 8.8 220 11.1 103090 88
2002-04-23 07:26:37 51°11.79 2°47.632 9 218 11.1 103090 88
2002-04-23 07:26:42 51°11.781 2°47.608 9.4 213 11.1 103100 88
2002-04-23 07:26:47 51°11.772 2°47.584 8.2 214 11.1 103100 88
2002-04-23 07:26:52 51°11.762 2°47.561 8.3 213 11.1 103090 88
2002-04-23 07:26:57 51°11.753 2°47.537 8.8 216 11.1 103090 88
2002-04-23 07:27:02 51°11.743 2°47.514 8.3 216 11.1 103100 88
2002-04-23 07:27:07 51°11.734 2°47.49 7.9 212 11.1 103100 88
2002-04-23 07:27:12 51°11.725 2°47.467 8.1 215 11.1 103100 88
2002-04-23 07:27:17 51°11.716 2°47.443 9 217 11.1 103100 88
2002-04-23 07:27:22 51°11.706 2°47.42 9.4 215 11.1 103090 88
2002-04-23 07:27:27 51°11.697 2°47.396 8.2 217 11.1 103090 88
2002-04-23 07:27:32 51°11.688 2°47.372 9 218 11.1 103100 88
2002-04-23 07:27:37 51°11.678 2°47.349 8.7 220 11.1 103100 88
2002-04-23 07:27:42 51°11.669 2°47.325 8.7 219 11.1 103100 88
2002-04-23 07:27:47 51°11.66 2°47.301 7.7 219 11.1 103100 88
2002-04-23 07:27:52 51°11.65 2°47.278 8.6 213 11.1 103100 88
2002-04-23 07:27:57 51°11.641 2°47.254 8.4 215 11.1 103100 88
2002-04-23 07:28:01 51°11.634 2°47.235 8.4 223 11.1 103100 88
2002-04-23 07:28:07 51°11.623 2°47.207 9.2 216 11.1 103100 88
2002-04-23 07:28:12 51°11.614 2°47.184 7.9 223 11.1 103100 88
2002-04-23 07:28:17 51°11.604 2°47.16 9 219 11.1 103100 88
2002-04-23 07:28:22 51°11.595 2°47.137 8.9 217 11.2 103100 88
2002-04-23 07:28:27 51°11.585 2°47.114 8.8 210 11.2 103100 88
2002-04-23 07:28:32 51°11.576 2°47.09 8.6 218 11.1 103100 87
2002-04-23 07:28:37 51°11.567 2°47.067 8.4 221 11.1 103100 87
2002-04-23 07:28:42 51°11.558 2°47.043 8.5 217 11.2 103100 88
2002-04-23 07:28:47 51°11.548 2°47.02 8.2 220 11.2 103100 88
2002-04-23 07:28:52 51°11.539 2°46.996 8.1 218 11.1 103100 88
2002-04-23 07:28:57 51°11.53 2°46.973 7.8 219 11.1 103100 88
2002-04-23 07:29:02 51°11.52 2°46.95 8.5 221 11.2 103100 88
2002-04-23 07:29:07 51°11.511 2°46.926 8.4 217 11.2 103100 88
2002-04-23 07:29:12 51°11.502 2°46.903 7.6 218 11.1 103100 87
2002-04-23 07:29:17 51°11.492 2°46.88 8.1 222 11.1 103100 87
2002-04-23 07:29:22 51°11.483 2°46.856 8.1 218 11.2 103100 87
2002-04-23 07:29:27 51°11.474 2°46.833 7.9 216 11.2 103100 87
2002-04-23 07:29:32 51°11.464 2°46.81 8.5 220 11.2 103100 87
2002-04-23 07:29:37 51°11.455 2°46.786 9.1 216 11.2 103100 87
2002-04-23 07:29:41 51°11.448 2°46.767 8.5 217 11.2 103100 87
2002-04-23 07:29:47 51°11.437 2°46.739 7.9 216 11.2 103100 87
2002-04-23 07:29:52 51°11.427 2°46.716 7.5 216 11.2 103100 87
2002-04-23 07:29:57 51°11.418 2°46.692 7.5 219 11.2 103100 87
2002-04-23 07:30:02 51°11.409 2°46.669 8 219 11.2 103100 87
2002-04-23 07:30:07 51°11.4 2°46.645 8.5 219 11.2 103100 87
2002-04-23 07:30:12 51°11.39 2°46.622 8.3 217 11.2 103100 87
2002-04-23 07:30:17 51°11.381 2°46.598 7.7 217 11.2 103100 87
2002-04-23 07:30:22 51°11.372 2°46.575 8.3 212 11.2 103100 87
2002-04-23 07:30:27 51°11.362 2°46.552 7.5 215 11.2 103100 87
2002-04-23 07:30:32 51°11.353 2°46.528 7.7 220 11.2 103100 87
2002-04-23 07:30:37 51°11.343 2°46.505 8.7 220 11.2 103100 87
2002-04-23 07:30:42 51°11.334 2°46.481 8 224 11.2 103100 87
2002-04-23 07:30:47 51°11.325 2°46.458 8.4 222 11.2 103100 87
2002-04-23 07:30:52 51°11.316 2°46.435 7.9 221 11.2 103100 87
2002-04-23 07:30:57 51°11.306 2°46.412 8.4 218 11.2 103100 87
2002-04-23 07:31:01 51°11.299 2°46.393 8 213 11.2 103100 87
2002-04-23 07:31:07 51°11.288 2°46.365 7.6 213 11.2 103100 87
2002-04-23 07:31:12 51°11.278 2°46.341 7.9 218 11.2 103100 87
2002-04-23 07:31:17 51°11.269 2°46.318 8 218 11.2 103100 87
2002-04-23 07:31:22 51°11.259 2°46.295 7.6 214 11.2 103100 87
2002-04-23 07:31:27 51°11.25 2°46.271 7.5 217 11.2 103100 87
2002-04-23 07:31:32 51°11.241 2°46.248 8.7 218 11.2 103100 87
2002-04-23 07:31:37 51°11.231 2°46.224 8 222 11.2 103100 87
2002-04-23 07:31:42 51°11.222 2°46.201 8 220 11.2 103100 87
2002-04-23 07:31:47 51°11.213 2°46.177 7.4 220 11.2 103100 87
2002-04-23 07:31:52 51°11.203 2°46.154 8.2 220 11.3 103100 87
2002-04-23 07:31:57 51°11.194 2°46.13 7.6 220 11.3 103100 87
2002-04-23 07:32:02 51°11.184 2°46.107 8.2 219 11.3 103100 87
2002-04-23 07:32:07 51°11.175 2°46.083 8.2 219 11.3 103100 87
2002-04-23 07:32:12 51°11.166 2°46.059 7.6 219 11.3 103100 87
2002-04-23 07:32:17 51°11.156 2°46.035 7.8 219 11.3 103100 87
2002-04-23 07:32:22 51°11.147 2°46.012 7.9 219 11.3 103110 87
2002-04-23 07:32:27 51°11.137 2°45.989 8.5 222 11.3 103110 87
2002-04-23 07:32:32 51°11.128 2°45.965 7.6 223 11.3 103110 87
2002-04-23 07:32:37 51°11.119 2°45.942 7.7 221 11.3 103110 87
2002-04-23 07:32:42 51°11.109 2°45.918 8.3 221 11.3 103110 87
2002-04-23 07:32:47 51°11.1 2°45.895 7.7 220 11.3 103110 87
2002-04-23 07:32:52 51°11.091 2°45.871 8.3 225 11.3 103100 87
2002-04-23 07:32:57 51°11.081 2°45.848 8 222 11.3 103100 87
2002-04-23 07:33:02 51°11.072 2°45.824 7.8 221 11.3 103100 87
2002-04-23 07:33:07 51°11.062 2°45.801 7.7 221 11.3 103100 87
2002-04-23 07:33:12 51°11.053 2°45.777 8.5 222 11.3 103110 87
2002-04-23 07:33:17 51°11.043 2°45.754 7.9 222 11.3 103110 87
2002-04-23 07:33:22 51°11.034 2°45.73 8.3 135 11.3 103100 87
2002-04-23 07:33:27 51°11.025 2°45.707 8.5 221 11.3 103100 87
2002-04-23 07:33:32 51°11.015 2°45.683 8 223 11.3 103100 87
2002-04-23 07:33:37 51°11.006 2°45.66 8.9 219 11.3 103100 87
2002-04-23 07:33:41 51°10.998 2°45.641 8 222 11.3 103100 87
2002-04-23 07:33:47 51°10.987 2°45.613 8.5 222 11.3 103100 87
2002-04-23 07:33:52 51°10.978 2°45.59 7.6 225 11.3 103110 87
2002-04-23 07:33:57 51°10.968 2°45.567 8.3 223 11.3 103110 87
2002-04-23 07:34:02 51°10.959 2°45.543 8.8 225 11.3 103100 87
2002-04-23 07:34:07 51°10.949 2°45.52 8.1 221 11.3 103100 87
2002-04-23 07:34:12 51°10.94 2°45.496 8.4 224 11.3 103100 87
2002-04-23 07:34:17 51°10.931 2°45.473 7.9 221 11.3 103100 87
2002-04-23 07:34:22 51°10.921 2°45.45 7.6 224 11.3 103100 87
2002-04-23 07:34:27 51°10.912 2°45.426 8.4 225 11.3 103100 87
2002-04-23 07:34:32 51°10.903 2°45.403 8.1 224 11.3 103100 87
2002-04-23 07:34:37 51°10.893 2°45.38 8.5 226 11.3 103100 87
2002-04-23 07:34:42 51°10.884 2°45.356 8.4 223 11.3 103100 87
2002-04-23 07:34:47 51°10.875 2°45.333 8.8 223 11.3 103100 87
2002-04-23 07:34:52 51°10.866 2°45.31 8.6 227 11.3 103100 87
2002-04-23 07:34:57 51°10.856 2°45.287 8.2 224 11.3 103100 87
2002-04-23 07:35:01 51°10.849 2°45.268 7.9 222 11.3 103100 87
2002-04-23 07:35:07 51°10.838 2°45.24 8.8 221 11.3 103100 87
2002-04-23 07:35:12 51°10.829 2°45.216 7.8 225 11.3 103100 87
2002-04-23 07:35:17 51°10.819 2°45.193 7.9 222 11.3 103100 87
2002-04-23 07:35:22 51°10.81 2°45.17 7.6 223 11.3 103100 87
2002-04-23 07:35:27 51°10.801 2°45.147 8.4 224 11.3 103100 87
2002-04-23 07:35:32 51°10.791 2°45.123 8 222 11.3 103100 87
2002-04-23 07:35:37 51°10.782 2°45.1 8.5 224 11.3 103100 87
2002-04-23 07:35:42 51°10.773 2°45.077 8.5 226 11.3 103100 87
2002-04-23 07:35:47 51°10.764 2°45.054 7.8 225 11.3 103100 87
2002-04-23 07:35:52 51°10.755 2°45.03 7.9 226 11.3 103100 87
2002-04-23 07:35:57 51°10.745 2°45.007 8.4 224 11.3 103100 87
2002-04-23 07:36:02 51°10.736 2°44.984 8.6 223 11.3 103100 87
2002-04-23 07:36:07 51°10.726 2°44.96 7.6 223 11.3 103100 87
2002-04-23 07:36:12 51°10.717 2°44.937 8.2 224 11.3 103100 87
2002-04-23 07:36:17 51°10.708 2°44.914 8.1 226 11.3 103100 87
2002-04-23 07:36:22 51°10.699 2°44.89 8.4 226 11.3 103100 87
2002-04-23 07:36:27 51°10.689 2°44.867 8.3 226 11.3 103100 87
2002-04-23 07:36:32 51°10.68 2°44.844 8.8 225 11.3 103100 87
2002-04-23 07:36:37 51°10.671 2°44.82 8.7 221 11.3 103100 87
2002-04-23 07:36:42 51°10.661 2°44.797 8.1 224 11.3 103110 87
2002-04-23 07:36:47 51°10.652 2°44.774 8.9 222 11.3 103110 87
2002-04-23 07:36:52 51°10.643 2°44.75 8.5 221 11.3 103100 87
2002-04-23 07:36:57 51°10.633 2°44.727 8.1 218 11.3 103100 87
2002-04-23 07:37:02 51°10.624 2°44.703 8.3 221 11.3 103100 87
2002-04-23 07:37:07 51°10.614 2°44.68 8 224 11.3 103100 87
2002-04-23 07:37:12 51°10.605 2°44.657 8.3 225 11.3 103100 87
2002-04-23 07:37:17 51°10.596 2°44.633 7.7 226 11.3 103100 87
2002-04-23 07:37:21 51°10.589 2°44.614 8.4 225 11.3 103100 87
2002-04-23 07:37:27 51°10.578 2°44.586 7.4 227 11.3 103100 87
2002-04-23 07:37:32 51°10.568 2°44.563 7.7 226 11.3 103100 87
2002-04-23 07:37:37 51°10.559 2°44.54 7.4 223 11.3 103100 87
2002-04-23 07:37:42 51°10.549 2°44.516 7.7 225 11.3 103100 87
2002-04-23 07:37:47 51°10.54 2°44.493 8.5 224 11.3 103100 87
2002-04-23 07:37:52 51°10.531 2°44.47 8.4 225 11.3 103110 87
2002-04-23 07:37:57 51°10.522 2°44.446 8 224 11.3 103110 87
2002-04-23 07:38:02 51°10.512 2°44.423 8.6 223 11.3 103100 87
2002-04-23 07:38:07 51°10.503 2°44.4 8.8 222 11.3 103100 87
2002-04-23 07:38:12 51°10.494 2°44.377 7.9 227 11.3 103100 87
2002-04-23 07:38:17 51°10.484 2°44.354 8.6 224 11.3 103100 87
2002-04-23 07:38:22 51°10.475 2°44.33 8.4 226 11.3 103100 87
2002-04-23 07:38:27 51°10.466 2°44.307 8.1 224 11.3 103100 87
2002-04-23 07:38:32 51°10.457 2°44.283 8.2 225 11.3 103100 87
2002-04-23 07:38:37 51°10.447 2°44.26 7.9 225 11.3 103100 87
2002-04-23 07:38:42 51°10.438 2°44.236 8.4 226 11.3 103100 87
2002-04-23 07:38:47 51°10.428 2°44.213 8.1 223 11.3 103100 87
2002-04-23 07:38:52 51°10.419 2°44.19 8 224 11.3 103100 87
2002-04-23 07:38:57 51°10.41 2°44.167 8.2 221 11.3 103100 87
2002-04-23 07:39:02 51°10.401 2°44.144 7.6 224 11.3 103100 87
2002-04-23 07:39:07 51°10.391 2°44.121 8.3 226 11.3 103100 87
2002-04-23 07:39:12 51°10.382 2°44.097 8.2 225 11.3 103100 87
2002-04-23 07:39:17 51°10.373 2°44.074 8.4 226 11.3 103100 87
2002-04-23 07:39:22 51°10.364 2°44.051 8.2 225 11.3 103110 87
2002-04-23 07:39:27 51°10.354 2°44.027 8.2 226 11.3 103110 87
2002-04-23 07:39:31 51°10.347 2°44.009 8.2 229 11.3 103100 87
2002-04-23 07:39:37 51°10.335 2°43.981 8.3 227 11.3 103100 87
2002-04-23 07:39:42 51°10.326 2°43.958 8.7 225 11.3 103100 87
2002-04-23 07:39:47 51°10.317 2°43.935 8 225 11.3 103100 87
2002-04-23 07:39:52 51°10.307 2°43.912 8.1 225 11.3 103100 87
2002-04-23 07:39:57 51°10.298 2°43.888 8 228 11.3 103100 87
2002-04-23 07:40:02 51°10.289 2°43.865 8.4 229 11.3 103100 87
2002-04-23 07:40:07 51°10.279 2°43.842 7.8 230 11.3 103100 87
2002-04-23 07:40:12 51°10.27 2°43.819 8 227 11.3 103100 87
2002-04-23 07:40:17 51°10.26 2°43.796 8.2 224 11.3 103100 87
2002-04-23 07:40:22 51°10.251 2°43.772 8.3 225 11.3 103100 87
2002-04-23 07:40:27 51°10.242 2°43.749 8 226 11.3 103100 87
2002-04-23 07:40:32 51°10.234 2°43.725 8.4 228 11.3 103100 87
2002-04-23 07:40:37 51°10.226 2°43.7 8.6 232 11.3 103100 87
2002-04-23 07:40:42 51°10.218 2°43.675 8.4 228 11.3 103100 87
2002-04-23 07:40:47 51°10.212 2°43.65 7.9 234 11.3 103100 87
2002-04-23 07:40:52 51°10.205 2°43.624 8.8 228 11.3 103100 87
2002-04-23 07:40:56 51°10.202 2°43.603 8.2 233 11.3 103100 87
2002-04-23 07:41:02 51°10.197 2°43.571 8.6 234 11.3 103100 87
2002-04-23 07:41:07 51°10.194 2°43.544 8.7 231 11.3 103100 87
2002-04-23 07:41:12 51°10.193 2°43.517 9.3 234 11.3 103100 87
2002-04-23 07:41:17 51°10.193 2°43.489 8.7 231 11.3 103100 87
2002-04-23 07:41:22 51°10.194 2°43.462 8.8 231 11.3 103100 87
2002-04-23 07:41:27 51°10.197 2°43.435 8.5 235 11.3 103100 87
2002-04-23 07:41:32 51°10.2 2°43.408 8.7 232 11.3 103100 87
2002-04-23 07:41:37 51°10.204 2°43.381 8.8 232 11.3 103100 87
2002-04-23 07:41:42 51°10.21 2°43.354 8.5 233 11.3 103100 87
2002-04-23 07:41:47 51°10.215 2°43.328 9 229 11.3 103100 87
2002-04-23 07:41:52 51°10.221 2°43.302 9.6 230 11.3 103100 87
2002-04-23 07:41:57 51°10.227 2°43.275 9.2 229 11.3 103100 87
2002-04-23 07:42:02 51°10.232 2°43.248 8.9 230 11.3 103100 87
2002-04-23 07:42:07 51°10.236 2°43.221 9.8 226 11.3 103100 87
2002-04-23 07:42:12 51°10.241 2°43.194 9.1 226 11.2 103110 87
2002-04-23 07:42:17 51°10.244 2°43.167 8.6 225 11.2 103110 87
2002-04-23 07:42:22 51°10.247 2°43.14 8.1 227 11.3 103100 87
2002-04-23 07:42:27 51°10.249 2°43.112 9 226 11.3 103100 87
2002-04-23 07:42:32 51°10.251 2°43.085 8.9 315 11.2 103100 87
2002-04-23 07:42:37 51°10.254 2°43.057 8.9 229 11.2 103100 87
2002-04-23 07:42:42 51°10.255 2°43.03 8.4 230 11.3 103100 87
2002-04-23 07:42:47 51°10.258 2°43.003 9.1 227 11.3 103100 87
2002-04-23 07:42:52 51°10.26 2°42.975 8.5 230 11.2 103110 87
2002-04-23 07:42:57 51°10.263 2°42.948 9.8 224 11.2 103110 87
2002-04-23 07:43:02 51°10.265 2°42.92 8.9 226 11.2 103100 87
2002-04-23 07:43:07 51°10.266 2°42.893 8.1 225 11.2 103100 87
2002-04-23 07:43:12 51°10.265 2°42.865 8.2 224 11.2 103110 87
2002-04-23 07:43:17 51°10.263 2°42.839 8.8 227 11.2 103110 87
2002-04-23 07:43:22 51°10.26 2°42.812 8.6 221 11.2 103100 87
2002-04-23 07:43:27 51°10.257 2°42.785 9.2 220 11.2 103100 87
2002-04-23 07:43:32 51°10.252 2°42.759 8.2 227 11.3 103110 87
2002-04-23 07:43:37 51°10.247 2°42.733 9.3 225 11.3 103110 87
2002-04-23 07:43:42 51°10.242 2°42.707 8.1 216 11.2 103110 87
2002-04-23 07:43:47 51°10.236 2°42.681 8.2 216 11.2 103110 87
2002-04-23 07:43:52 51°10.231 2°42.655 9.1 223 11.3 103100 87
2002-04-23 07:43:57 51°10.226 2°42.629 8.4 228 11.3 103100 87
2002-04-23 07:44:02 51°10.221 2°42.602 8.7 224 11.2 103110 87
2002-04-23 07:44:07 51°10.216 2°42.576 7.9 227 11.2 103110 87
2002-04-23 07:44:12 51°10.211 2°42.549 8.7 222 11.2 103110 87
2002-04-23 07:44:17 51°10.207 2°42.523 8.3 226 11.2 103110 87
2002-04-23 07:44:22 51°10.203 2°42.496 8.8 225 11.2 103110 87
2002-04-23 07:44:27 51°10.199 2°42.469 8.4 221 11.2 103110 87
2002-04-23 07:44:32 51°10.195 2°42.442 8.6 219 11.2 103110 87
2002-04-23 07:44:37 51°10.192 2°42.415 9 222 11.2 103110 87
2002-04-23 07:44:42 51°10.188 2°42.388 9.1 221 11.2 103110 87
2002-04-23 07:44:47 51°10.185 2°42.361 8.7 222 11.2 103110 87
2002-04-23 07:44:52 51°10.182 2°42.334 8.9 223 11.2 103110 87
2002-04-23 07:44:57 51°10.179 2°42.307 9.2 219 11.2 103110 87
2002-04-23 07:45:02 51°10.176 2°42.28 9.5 218 11.2 103110 87
2002-04-23 07:45:07 51°10.172 2°42.253 8.6 219 11.2 103110 87
2002-04-23 07:45:12 51°10.169 2°42.226 8.2 222 11.2 103110 87
2002-04-23 07:45:17 51°10.165 2°42.199 8.7 217 11.2 103110 87
2002-04-23 07:45:22 51°10.162 2°42.172 9.2 214 11.2 103110 87
2002-04-23 07:45:27 51°10.158 2°42.145 8.8 218 11.2 103110 87
2002-04-23 07:45:32 51°10.155 2°42.118 8.9 218 11.2 103110 87
2002-04-23 07:45:37 51°10.151 2°42.091 9.1 219 11.2 103110 87
2002-04-23 07:45:42 51°10.148 2°42.064 9.2 220 11.2 103100 87
2002-04-23 07:45:47 51°10.144 2°42.037 9.2 216 11.2 103100 87
2002-04-23 07:45:52 51°10.141 2°42.01 8.6 222 11.2 103110 87
2002-04-23 07:45:57 51°10.137 2°41.984 9.5 213 11.2 103110 87
2002-04-23 07:46:02 51°10.134 2°41.957 8.9 217 11.2 103110 87
2002-04-23 07:46:07 51°10.131 2°41.93 9.2 217 11.2 103110 87
2002-04-23 07:46:12 51°10.127 2°41.903 10.1 218 11.2 103110 87
2002-04-23 07:46:17 51°10.124 2°41.876 9.1 219 11.2 103110 87
2002-04-23 07:46:22 51°10.12 2°41.849 10.5 213 11.2 103100 87
2002-04-23 07:46:27 51°10.117 2°41.822 9.4 216 11.2 103100 87
2002-04-23 07:46:32 51°10.113 2°41.795 9.2 217 11.2 103100 87
2002-04-23 07:46:37 51°10.11 2°41.769 10.3 215 11.2 103100 87
2002-04-23 07:46:41 51°10.107 2°41.747 10.2 216 11.2 103110 87
2002-04-23 07:46:47 51°10.102 2°41.715 9.6 217 11.2 103110 87
2002-04-23 07:46:52 51°10.099 2°41.688 9.1 218 11.2 103100 87
2002-04-23 07:46:57 51°10.096 2°41.661 9.2 217 11.2 103100 87
2002-04-23 07:47:02 51°10.093 2°41.634 9.3 212 11.2 103100 87
2002-04-23 07:47:07 51°10.089 2°41.607 10.2 218 11.2 103100 87
2002-04-23 07:47:12 51°10.086 2°41.58 9.8 218 11.2 103100 87
2002-04-23 07:47:17 51°10.082 2°41.553 9 212 11.2 103100 87
2002-04-23 07:47:22 51°10.079 2°41.527 9.8 215 11.2 103100 87
2002-04-23 07:47:27 51°10.075 2°41.5 9.4 219 11.2 103100 87
2002-04-23 07:47:32 51°10.072 2°41.473 9.4 216 11.2 103100 87
2002-04-23 07:47:37 51°10.068 2°41.446 9.8 217 11.2 103100 87
2002-04-23 07:47:42 51°10.065 2°41.419 9.9 214 11.2 103100 87
2002-04-23 07:47:47 51°10.061 2°41.392 9.7 218 11.2 103100 87
2002-04-23 07:47:52 51°10.058 2°41.366 10.1 218 11.2 103100 87
2002-04-23 07:47:57 51°10.054 2°41.339 10.5 218 11.2 103100 87
2002-04-23 07:48:02 51°10.051 2°41.312 10.9 216 11.2 103100 87
2002-04-23 07:48:07 51°10.047 2°41.285 10.8 216 11.2 103100 87
2002-04-23 07:48:12 51°10.044 2°41.258 9.6 216 11.2 103100 87
2002-04-23 07:48:17 51°10.041 2°41.232 9.8 216 11.2 103100 87
2002-04-23 07:48:22 51°10.037 2°41.205 10.4 213 11.2 103100 87
2002-04-23 07:48:27 51°10.034 2°41.178 9.9 213 11.2 103100 87
2002-04-23 07:48:32 51°10.03 2°41.151 11.3 217 11.2 103100 87
2002-04-23 07:48:37 51°10.027 2°41.124 12.4 212 11.2 103100 87
2002-04-23 07:48:42 51°10.023 2°41.098 10.2 216 11.2 103100 87
2002-04-23 07:48:47 51°10.02 2°41.071 11.1 212 11.2 103100 87
2002-04-23 07:48:52 51°10.017 2°41.044 11.3 213 11.2 103100 87
2002-04-23 07:48:57 51°10.013 2°41.017 11.6 211 11.2 103100 87
2002-04-23 07:49:02 51°10.01 2°40.99 10.8 215 11.2 103100 87
2002-04-23 07:49:07 51°10.006 2°40.963 11.8 213 11.2 103100 87
2002-04-23 07:49:12 51°10.003 2°40.937 10.9 212 11.2 103100 87
2002-04-23 07:49:17 51°9.999 2°40.91 10.3 213 11.2 103100 87
2002-04-23 07:49:22 51°9.996 2°40.883 10.7 215 11.2 103090 87
2002-04-23 07:49:27 51°9.993 2°40.856 10.6 216 11.2 103090 87
2002-04-23 07:49:32 51°9.989 2°40.829 12.5 215 11.2 103100 87
2002-04-23 07:49:37 51°9.986 2°40.802 11.7 215 11.2 103100 87
2002-04-23 07:49:42 51°9.983 2°40.776 10.3 215 11.2 103100 87
2002-04-23 07:49:47 51°9.979 2°40.749 10.2 216 11.2 103100 87
2002-04-23 07:49:52 51°9.976 2°40.722 10.3 215 11.2 103100 87
2002-04-23 07:49:57 51°9.972 2°40.695 11.2 217 11.2 103100 87
2002-04-23 07:50:02 51°9.969 2°40.668 10.3 217 11.2 103090 87
2002-04-23 07:50:07 51°9.966 2°40.641 11.3 218 11.2 103090 87
2002-04-23 07:50:12 51°9.963 2°40.615 11.4 216 11.2 103100 87
2002-04-23 07:50:17 51°9.959 2°40.588 11.1 214 11.2 103100 87
2002-04-23 07:50:22 51°9.956 2°40.561 10.8 218 11.2 103100 87
2002-04-23 07:50:27 51°9.952 2°40.534 11.5 212 11.2 103100 87
2002-04-23 07:50:32 51°9.949 2°40.507 12 214 11.2 103090 87
2002-04-23 07:50:37 51°9.946 2°40.48 10.9 212 11.2 103090 87
2002-04-23 07:50:42 51°9.942 2°40.453 11.7 220 11.2 103100 87
2002-04-23 07:50:47 51°9.939 2°40.427 11.5 214 11.2 103100 87
2002-04-23 07:50:52 51°9.936 2°40.4 10.2 212 11.2 103100 87
2002-04-23 07:50:57 51°9.933 2°40.373 11.1 220 11.2 103100 87
2002-04-23 07:51:02 51°9.929 2°40.346 11.4 215 11.2 103100 87
2002-04-23 07:51:07 51°9.926 2°40.319 10.3 219 11.2 103100 87
2002-04-23 07:51:12 51°9.923 2°40.293 11.3 214 11.2 103100 87
2002-04-23 07:51:17 51°9.919 2°40.266 11.2 217 11.2 103100 87
2002-04-23 07:51:22 51°9.916 2°40.239 10.5 217 11.2 103100 87
2002-04-23 07:51:27 51°9.913 2°40.213 10.2 217 11.2 103100 87
2002-04-23 07:51:32 51°9.909 2°40.186 11.3 211 11.2 103100 87
2002-04-23 07:51:37 51°9.906 2°40.159 11.8 215 11.2 103100 87
2002-04-23 07:51:42 51°9.903 2°40.133 10.7 216 11.2 103090 87
2002-04-23 07:51:47 51°9.899 2°40.106 10.9 218 11.2 103090 87
2002-04-23 07:51:52 51°9.896 2°40.079 11.6 215 11.2 103100 87
2002-04-23 07:51:57 51°9.893 2°40.053 11.3 213 11.2 103100 87
2002-04-23 07:52:02 51°9.89 2°40.026 10.4 218 11.2 103090 87
2002-04-23 07:52:07 51°9.886 2°39.999 11 218 11.2 103090 87
2002-04-23 07:52:12 51°9.883 2°39.972 10.3 216 11.2 103100 87
2002-04-23 07:52:17 51°9.879 2°39.946 11.7 214 11.2 103100 87
2002-04-23 07:52:22 51°9.876 2°39.919 11.4 214 11.2 103090 87
2002-04-23 07:52:27 51°9.873 2°39.892 11.6 216 11.2 103090 87
2002-04-23 07:52:32 51°9.87 2°39.866 11.1 213 11.2 103090 87
2002-04-23 07:52:37 51°9.866 2°39.839 11.9 216 11.2 103090 87
2002-04-23 07:52:42 51°9.863 2°39.812 11.3 217 11.3 103090 87
2002-04-23 07:52:47 51°9.86 2°39.786 12 211 11.3 103090 87
2002-04-23 07:52:52 51°9.857 2°39.759 11.1 214 11.2 103090 87
2002-04-23 07:52:57 51°9.854 2°39.732 11.6 214 11.2 103090 87
2002-04-23 07:53:02 51°9.85 2°39.705 11.4 213 11.2 103090 87
2002-04-23 07:53:07 51°9.847 2°39.679 11.6 213 11.2 103090 87
2002-04-23 07:53:12 51°9.843 2°39.652 10.7 216 11.3 103100 87
2002-04-23 07:53:17 51°9.84 2°39.625 11.8 212 11.3 103100 87
2002-04-23 07:53:22 51°9.837 2°39.599 11.1 214 11.2 103090 87
2002-04-23 07:53:27 51°9.833 2°39.572 12.3 214 11.2 103090 87
2002-04-23 07:53:32 51°9.83 2°39.545 11.7 213 11.2 103090 87
2002-04-23 07:53:37 51°9.827 2°39.518 11 213 11.2 103090 87
2002-04-23 07:53:42 51°9.823 2°39.492 11 215 11.2 103090 87
2002-04-23 07:53:47 51°9.82 2°39.465 11.6 215 11.2 103090 87
2002-04-23 07:53:52 51°9.816 2°39.438 11.8 212 11.2 103100 87
2002-04-23 07:53:57 51°9.813 2°39.411 11 212 11.2 103100 87
2002-04-23 07:54:02 51°9.81 2°39.385 10.8 217 11.2 103090 87
2002-04-23 07:54:07 51°9.806 2°39.358 11.2 211 11.2 103090 87
2002-04-23 07:54:12 51°9.803 2°39.331 11.8 213 11.2 103090 87
2002-04-23 07:54:17 51°9.799 2°39.304 11.4 216 11.2 103090 87
2002-04-23 07:54:22 51°9.795 2°39.278 10.9 214 11.2 103090 87
2002-04-23 07:54:27 51°9.792 2°39.251 11.2 213 11.2 103090 87
2002-04-23 07:54:32 51°9.789 2°39.224 11.1 209 11.2 103090 87
2002-04-23 07:54:37 51°9.785 2°39.197 12.4 207 11.2 103090 87
2002-04-23 07:54:42 51°9.782 2°39.17 10.5 216 11.2 103090 87
2002-04-23 07:54:47 51°9.779 2°39.144 11.4 211 11.2 103090 87
2002-04-23 07:54:52 51°9.775 2°39.117 10.6 209 11.2 103090 87
2002-04-23 07:54:57 51°9.772 2°39.09 10.7 213 11.2 103090 87
2002-04-23 07:55:02 51°9.769 2°39.063 11.4 213 11.2 103090 87
2002-04-23 07:55:07 51°9.765 2°39.036 11 210 11.2 103090 87
2002-04-23 07:55:12 51°9.762 2°39.009 11.5 211 11.2 103090 87
2002-04-23 07:55:17 51°9.758 2°38.983 12.1 213 11.2 103090 87
2002-04-23 07:55:22 51°9.754 2°38.956 12 211 11.2 103090 87
2002-04-23 07:55:27 51°9.751 2°38.929 11.1 210 11.2 103090 87
2002-04-23 07:55:32 51°9.747 2°38.902 12.1 208 11.2 103090 87
2002-04-23 07:55:37 51°9.744 2°38.875 12.2 209 11.2 103090 87
2002-04-23 07:55:42 51°9.74 2°38.849 11.5 212 11.2 103090 87
2002-04-23 07:55:47 51°9.737 2°38.822 11.4 211 11.2 103090 87
2002-04-23 07:55:52 51°9.733 2°38.795 10.7 213 11.2 103090 87
2002-04-23 07:55:57 51°9.73 2°38.768 11.7 209 11.2 103090 87
2002-04-23 07:56:02 51°9.726 2°38.741 10.7 210 11.2 103090 87
2002-04-23 07:56:07 51°9.723 2°38.714 10.9 210 11.2 103090 87
2002-04-23 07:56:12 51°9.72 2°38.688 11 211 11.2 103090 87
2002-04-23 07:56:17 51°9.716 2°38.661 11.9 212 11.2 103090 87
2002-04-23 07:56:22 51°9.713 2°38.634 12.1 207 11.2 103090 87
2002-04-23 07:56:27 51°9.709 2°38.607 11.4 213 11.2 103090 87
2002-04-23 07:56:32 51°9.706 2°38.58 11.9 208 11.2 103090 87
2002-04-23 07:56:37 51°9.702 2°38.553 12.2 209 11.2 103090 87
2002-04-23 07:56:42 51°9.699 2°38.527 10.3 208 11.2 103090 87
2002-04-23 07:56:47 51°9.695 2°38.5 11.9 206 11.2 103090 87
2002-04-23 07:56:52 51°9.692 2°38.473 12.7 210 11.2 103090 87
2002-04-23 07:56:57 51°9.688 2°38.446 11.8 210 11.2 103090 87
2002-04-23 07:57:02 51°9.685 2°38.419 11.4 211 11.1 103090 87
2002-04-23 07:57:07 51°9.681 2°38.392 12.1 209 11.1 103090 87
2002-04-23 07:57:12 51°9.678 2°38.365 12.2 208 11.1 103090 87
2002-04-23 07:57:17 51°9.674 2°38.339 12.1 207 11.1 103090 87
2002-04-23 07:57:22 51°9.671 2°38.312 11.6 210 11.1 103090 87
2002-04-23 07:57:27 51°9.667 2°38.285 12.1 209 11.1 103090 87
2002-04-23 07:57:32 51°9.664 2°38.258 11.5 209 11.1 103090 87
2002-04-23 07:57:37 51°9.66 2°38.231 12 208 11.1 103090 87
2002-04-23 07:57:42 51°9.657 2°38.204 10.9 207 11.1 103090 87
2002-04-23 07:57:47 51°9.653 2°38.177 11.7 207 11.1 103090 87
2002-04-23 07:57:52 51°9.65 2°38.15 12.3 204 11.1 103090 87
2002-04-23 07:57:57 51°9.646 2°38.124 10.9 210 11.1 103090 87
2002-04-23 07:58:02 51°9.643 2°38.097 12.4 208 11.1 103100 87
2002-04-23 07:58:07 51°9.639 2°38.07 11.5 210 11.1 103100 87
2002-04-23 07:58:12 51°9.636 2°38.043 12.9 208 11.1 103100 87
2002-04-23 07:58:17 51°9.632 2°38.016 12.4 204 11.1 103100 87
2002-04-23 07:58:22 51°9.629 2°37.989 11.6 203 11.1 103090 87
2002-04-23 07:58:27 51°9.625 2°37.962 12.4 207 11.1 103090 87
2002-04-23 07:58:32 51°9.622 2°37.935 11.5 208 11.1 103090 87
2002-04-23 07:58:37 51°9.618 2°37.908 11 209 11.1 103090 87
2002-04-23 07:58:42 51°9.615 2°37.881 10.8 207 11.1 103090 87
2002-04-23 07:58:47 51°9.611 2°37.855 11.9 207 11.1 103090 87
2002-04-23 07:58:51 51°9.609 2°37.833 12.6 207 11.1 103090 87
2002-04-23 07:58:57 51°9.604 2°37.801 12.9 204 11.1 103090 87
2002-04-23 07:59:02 51°9.601 2°37.774 11 207 11 103090 88
2002-04-23 07:59:07 51°9.597 2°37.747 11.3 209 11 103090 88
2002-04-23 07:59:12 51°9.594 2°37.72 12.6 205 11 103090 88
2002-04-23 07:59:17 51°9.591 2°37.694 11.8 206 11 103090 88
2002-04-23 07:59:22 51°9.588 2°37.667 11.3 209 11 103090 88
2002-04-23 07:59:27 51°9.584 2°37.64 11.4 208 11 103090 88
2002-04-23 07:59:32 51°9.581 2°37.613 12.8 205 11 103090 88
2002-04-23 07:59:37 51°9.577 2°37.586 12.2 203 11 103090 88
2002-04-23 07:59:42 51°9.573 2°37.559 12.1 206 11 103090 88
2002-04-23 07:59:47 51°9.57 2°37.532 11.3 207 11 103090 88
2002-04-23 07:59:52 51°9.567 2°37.506 11 206 11 103090 88
2002-04-23 07:59:57 51°9.563 2°37.479 11.6 206 11 103090 88
2002-04-23 08:00:02 51°9.56 2°37.452 12.2 207 11 103090 88
2002-04-23 08:00:07 51°9.557 2°37.425 13.1 203 11 103090 88
2002-04-23 08:00:12 51°9.553 2°37.399 11.2 204 11 103100 88
2002-04-23 08:00:17 51°9.55 2°37.372 10.9 205 11 103100 88
2002-04-23 08:00:22 51°9.546 2°37.345 11.2 207 11 103090 88
2002-04-23 08:00:27 51°9.543 2°37.318 11.4 208 11 103090 88
2002-04-23 08:00:32 51°9.54 2°37.291 11.9 207 11 103090 88
2002-04-23 08:00:37 51°9.537 2°37.265 11.4 207 11 103090 88
2002-04-23 08:00:42 51°9.534 2°37.237 11.4 207 11 103090 88
2002-04-23 08:00:47 51°9.532 2°37.21 12.1 206 11 103090 88
2002-04-23 08:00:52 51°9.53 2°37.183 12.4 211 11 103090 88
2002-04-23 08:00:57 51°9.529 2°37.156 13.5 209 11 103090 88
2002-04-23 08:01:02 51°9.527 2°37.128 12.1 208 11 103090 88
2002-04-23 08:01:07 51°9.526 2°37.101 10.9 214 11 103090 88
2002-04-23 08:01:12 51°9.525 2°37.074 12.7 209 11 103090 88
2002-04-23 08:01:17 51°9.524 2°37.047 11.6 205 11 103090 88
2002-04-23 08:01:22 51°9.523 2°37.02 11.2 208 11 103090 88
2002-04-23 08:01:27 51°9.521 2°36.992 11.6 210 11 103090 88
2002-04-23 08:01:32 51°9.52 2°36.965 11 208 11 103090 88
2002-04-23 08:01:37 51°9.518 2°36.938 12.8 208 11 103090 88
2002-04-23 08:01:42 51°9.517 2°36.911 12.1 205 10.9 103090 88
2002-04-23 08:01:47 51°9.515 2°36.883 11.7 205 10.9 103090 88
2002-04-23 08:01:52 51°9.514 2°36.856 10.6 207 11 103090 88
2002-04-23 08:01:57 51°9.512 2°36.829 11.8 210 11 103090 88
2002-04-23 08:02:02 51°9.51 2°36.802 12.5 208 10.9 103090 88
2002-04-23 08:02:07 51°9.509 2°36.774 11 206 10.9 103090 88
2002-04-23 08:02:12 51°9.507 2°36.747 11.6 208 10.9 103090 88
2002-04-23 08:02:17 51°9.506 2°36.72 11.1 210 10.9 103090 88
2002-04-23 08:02:22 51°9.504 2°36.693 13 207 10.9 103090 88
2002-04-23 08:02:27 51°9.502 2°36.666 11.6 209 10.9 103090 88
2002-04-23 08:02:32 51°9.501 2°36.639 12.7 207 10.9 103090 88
2002-04-23 08:02:37 51°9.499 2°36.612 11.2 209 10.9 103090 88
2002-04-23 08:02:42 51°9.497 2°36.585 11.6 208 10.9 103090 88
2002-04-23 08:02:47 51°9.496 2°36.558 11.6 208 10.9 103090 88
2002-04-23 08:02:52 51°9.494 2°36.531 12.7 206 10.9 103090 88
2002-04-23 08:02:57 51°9.493 2°36.503 12 206 10.9 103090 88
2002-04-23 08:03:02 51°9.491 2°36.476 11.8 209 10.9 103090 88
2002-04-23 08:03:07 51°9.489 2°36.449 12.4 206 10.9 103090 88
2002-04-23 08:03:12 51°9.488 2°36.422 11.5 209 10.9 103090 88
2002-04-23 08:03:17 51°9.486 2°36.395 11.7 210 10.9 103090 88
2002-04-23 08:03:22 51°9.484 2°36.368 12.2 201 10.9 103090 88
2002-04-23 08:03:27 51°9.483 2°36.341 11.4 208 10.9 103090 88
2002-04-23 08:03:32 51°9.481 2°36.314 12.2 206 10.9 103090 88
2002-04-23 08:03:37 51°9.479 2°36.287 10.8 207 10.9 103090 88
2002-04-23 08:03:42 51°9.478 2°36.26 11 207 10.9 103090 88
2002-04-23 08:03:47 51°9.476 2°36.233 10.9 209 10.9 103090 88
2002-04-23 08:03:52 51°9.474 2°36.206 12.3 208 10.9 103090 88
2002-04-23 08:03:57 51°9.473 2°36.179 12.1 208 10.9 103090 88
2002-04-23 08:04:02 51°9.471 2°36.152 11.3 205 10.9 103090 88
2002-04-23 08:04:07 51°9.47 2°36.125 12.5 205 10.9 103090 88
2002-04-23 08:04:12 51°9.468 2°36.098 11.3 205 10.9 103100 88
2002-04-23 08:04:17 51°9.466 2°36.071 12.6 207 10.9 103100 88
2002-04-23 08:04:22 51°9.465 2°36.044 12.4 205 10.9 103090 88
2002-04-23 08:04:27 51°9.463 2°36.018 11.3 206 10.9 103090 88
2002-04-23 08:04:32 51°9.462 2°35.99 11.3 207 10.9 103100 88
2002-04-23 08:04:37 51°9.46 2°35.964 12.3 205 10.9 103100 88
2002-04-23 08:04:42 51°9.459 2°35.936 11.2 208 10.9 103090 88
2002-04-23 08:04:47 51°9.457 2°35.91 13.2 209 10.9 103090 88
2002-04-23 08:04:52 51°9.456 2°35.882 13 210 10.9 103100 88
2002-04-23 08:04:57 51°9.455 2°35.855 11.7 207 10.9 103100 88
2002-04-23 08:05:02 51°9.455 2°35.828 12.7 209 10.9 103090 88
2002-04-23 08:05:07 51°9.456 2°35.801 12.3 211 10.9 103090 88
2002-04-23 08:05:12 51°9.457 2°35.774 11.6 213 10.9 103090 88
2002-04-23 08:05:17 51°9.458 2°35.746 13.4 213 10.9 103090 88
2002-04-23 08:05:22 51°9.46 2°35.719 12.6 212 10.9 103090 88
2002-04-23 08:05:27 51°9.462 2°35.692 13.9 211 10.9 103090 88
2002-04-23 08:05:32 51°9.465 2°35.665 12.8 212 10.9 103090 89
2002-04-23 08:05:37 51°9.469 2°35.639 13.5 215 10.9 103090 89
2002-04-23 08:05:42 51°9.474 2°35.612 13.3 218 10.9 103100 89
2002-04-23 08:05:47 51°9.479 2°35.586 13.1 218 10.9 103100 89
2002-04-23 08:05:52 51°9.485 2°35.559 12.7 220 10.9 103090 89
2002-04-23 08:05:57 51°9.491 2°35.533 12.9 216 10.9 103090 89
2002-04-23 08:06:02 51°9.497 2°35.507 14.1 219 10.9 103100 89
2002-04-23 08:06:07 51°9.503 2°35.481 13.3 221 10.9 103100 89
2002-04-23 08:06:12 51°9.509 2°35.455 14.5 220 11 103100 89
2002-04-23 08:06:17 51°9.515 2°35.429 13.7 217 11 103100 89
2002-04-23 08:06:22 51°9.521 2°35.403 12.4 221 11 103090 89
2002-04-23 08:06:27 51°9.527 2°35.376 13.3 215 11 103090 89
2002-04-23 08:06:32 51°9.533 2°35.35 14.1 218 11 103090 89
2002-04-23 08:06:37 51°9.539 2°35.324 14.2 214 11 103090 89
2002-04-23 08:06:42 51°9.546 2°35.299 14.2 219 11 103090 89
2002-04-23 08:06:47 51°9.553 2°35.273 13.1 219 11 103090 89
2002-04-23 08:06:52 51°9.561 2°35.248 13.8 223 11 103100 89
2002-04-23 08:06:57 51°9.568 2°35.222 13.3 223 11 103100 89
2002-04-23 08:07:02 51°9.577 2°35.198 13.6 223 11 103100 89
2002-04-23 08:07:07 51°9.586 2°35.174 14.4 315 11 103100 89
2002-04-23 08:07:12 51°9.596 2°35.15 13.2 225 11 103090 89
2002-04-23 08:07:17 51°9.605 2°35.126 13.4 224 11 103090 89
2002-04-23 08:07:22 51°9.616 2°35.103 14.4 225 11 103100 89
2002-04-23 08:07:27 51°9.626 2°35.08 14 226 11 103100 89
2002-04-23 08:07:32 51°9.636 2°35.057 14.2 224 11 103090 89
2002-04-23 08:07:37 51°9.647 2°35.034 13.2 228 11 103090 89
2002-04-23 08:07:42 51°9.657 2°35.01 13.8 222 11 103090 89
2002-04-23 08:07:47 51°9.668 2°34.988 14.6 225 11 103090 89
2002-04-23 08:07:52 51°9.678 2°34.964 13.3 221 11 103100 89
2002-04-23 08:07:57 51°9.689 2°34.942 13.4 228 11 103100 89
2002-04-23 08:08:02 51°9.698 2°34.918 13.6 219 11.1 103100 89
2002-04-23 08:08:07 51°9.71 2°34.896 13.9 229 11.1 103100 89
2002-04-23 08:08:12 51°9.718 2°34.871 13.9 220 11 103090 89
2002-04-23 08:08:17 51°9.73 2°34.849 13.9 225 11 103090 89
2002-04-23 08:08:22 51°9.738 2°34.824 14.2 221 11 103100 88
2002-04-23 08:08:27 51°9.749 2°34.802 13.4 224 11 103100 88
2002-04-23 08:08:32 51°9.758 2°34.777 14.2 223 11 103090 88
2002-04-23 08:08:37 51°9.77 2°34.755 15.8 223 11 103090 88
2002-04-23 08:08:41 51°9.777 2°34.736 14.3 223 11 103100 88
2002-04-23 08:08:47 51°9.791 2°34.71 14.6 226 11 103100 88
2002-04-23 08:08:52 51°9.802 2°34.687 13.8 225 11 103090 88